Pagrindinis puslapis
METAR-TAF:

METAR-TAF

Oro uostai :

Wilbarger County Airport

Vernon, Teksasas, Jungtinės Amerikos Valstijos

platuma: 34-13-32N, ilguma: 099-17-01W, Aukštis: 386 m

Dabartinis oras

Ataskaita buvo paskelbta 31 minutes, ne 03:55 UTC
Vėjas 3 kt iš Rytų/Šiaurės Rytų
Temperatūra 19°C
Drėgmė 68%
Slėgis 1019 hPa
Matomumas: 16.1 km
Giedras dangus

METAR: KF05 220355Z AUTO 07003KT 10SM CLR 19/13 A3009 RMK AO2 T01880133

Laikas: 23:26 (04:26 UTC)


TAF: trūkstamas

Orai ataskaitas ir orų prognozės (METAR, TAF).

turimą stotys yra geltonos ir raudonos taškus žemėlapyje.

Perkelti pele per norėdami pamatyti stoties vardą.

Tada spustelėkite, norėdami matyti oro stebėjimo ir prognozės.

Norėdami pakeisti žemėlapį: spustelėkite ant žalios mygtukų su juodo kryžiaus žemyn,; žalią mygtuką su brūkšneliu, jei norite nutolinti; arba žalių rodyklių gretimoms žemėlapius.


METAR-TAF: